Wolke Sonne

Wetter Ammerndorf

Gehe zu: Roßtal

Tageswerte vom Samstag, 21.05.2022

Optionen

Tag:
Erweitert:

Alle Werte vom Samstag, 21.05.2022

Einen Moment bitte, die Daten werden aufbereitet...

UhrzeitTemperaturBoden 10cmBoden 20cmFeuchteLuftdruckNiederschlagEvapotranspirationWindWindböenWindrichtungSolarstrahlungUV-IndexSonne?Uhrzeit
Diagramm IconDiagramm IconDiagramm IconDiagramm IconDiagramm IconDiagramm IconDiagramm IconDiagramm IconDiagramm IconDiagramm IconDiagramm IconDiagramm IconDiagramm Icon
00:0017,4 °C 19,4 °C 18,3 °C 90 % 1014,9 hPa 0,0 mm - 1,4 km/h 7,9 km/h WNW 0,0 W/qm 0,0 nein 00:00
00:0517,3 °C 19,4 °C 18,3 °C 90 % 1014,9 hPa 0,0 mm 0,0 mm 3,2 km/h 7,9 km/h SW 0,0 W/qm 0,0 nein 00:05
00:1017,3 °C 19,4 °C 18,3 °C 90 % 1015,2 hPa 0,0 mm 0,0 mm 1,4 km/h 9,7 km/h W 0,0 W/qm 0,0 nein 00:10
00:1517,3 °C 19,4 °C 18,3 °C 90 % 1015,2 hPa 0,0 mm - 1,4 km/h 9,7 km/h SSW 0,0 W/qm 0,0 nein 00:15
00:2017,3 °C 19,4 °C 18,3 °C 90 % 1015,3 hPa 0,0 mm - 1,4 km/h 9,7 km/h SW 0,0 W/qm 0,0 nein 00:20
00:2517,2 °C 19,4 °C 18,3 °C 90 % 1015,3 hPa 0,0 mm - 1,4 km/h 9,7 km/h NW 0,0 W/qm 0,0 nein 00:25
00:3017,1 °C 19,4 °C 18,3 °C 90 % 1015,3 hPa 0,0 mm - 1,4 km/h 17,6 km/h NW 0,0 W/qm 0,0 nein 00:30
00:3516,9 °C 19,4 °C 18,3 °C 91 % 1015,3 hPa 0,0 mm - 0,0 km/h 17,6 km/h WNW 0,0 W/qm 0,0 nein 00:35
00:4016,7 °C 19,4 °C 18,3 °C 91 % 1015,4 hPa 0,0 mm - 0,0 km/h 4,7 km/h WNW 0,0 W/qm 0,0 nein 00:40
00:4516,5 °C 19,4 °C 18,3 °C 91 % 1015,4 hPa 0,0 mm - 0,0 km/h 3,2 km/h WNW 0,0 W/qm 0,0 nein 00:45
00:5016,3 °C 19,4 °C 18,3 °C 91 % 1015,6 hPa 0,0 mm - 0,0 km/h 3,2 km/h WNW 0,0 W/qm 0,0 nein 00:50
00:5516,1 °C 19,4 °C 18,3 °C 92 % 1015,6 hPa 0,0 mm - 0,0 km/h 0,0 km/h WNW 0,0 W/qm 0,0 nein 00:55
01:0015,9 °C 19,4 °C 18,3 °C 92 % 1015,8 hPa 0,0 mm - 0,0 km/h 0,0 km/h WNW 0,0 W/qm 0,0 nein 01:00
01:0515,9 °C 19,4 °C 18,3 °C 92 % 1015,8 hPa 0,0 mm 0,0 mm 0,0 km/h 4,7 km/h WSW 0,0 W/qm 0,0 nein 01:05
01:1015,8 °C 18,9 °C 18,3 °C 92 % 1016,0 hPa 0,0 mm 0,0 mm 0,0 km/h 4,7 km/h NO 0,0 W/qm 0,0 nein 01:10
01:1515,8 °C 18,9 °C 18,3 °C 91 % 1016,2 hPa 0,0 mm - 0,0 km/h 6,5 km/h SSW 0,0 W/qm 0,0 nein 01:15
01:2015,8 °C 18,9 °C 18,3 °C 91 % 1016,3 hPa 0,0 mm - 0,0 km/h 6,5 km/h SW 0,0 W/qm 0,0 nein 01:20
01:2515,8 °C 18,9 °C 18,3 °C 91 % 1016,3 hPa 0,0 mm - 0,0 km/h 6,5 km/h SW 0,0 W/qm 0,0 nein 01:25
01:3015,7 °C 18,9 °C 18,3 °C 91 % 1016,3 hPa 0,0 mm - 1,4 km/h 6,5 km/h S 0,0 W/qm 0,0 nein 01:30
01:3515,6 °C 18,9 °C 18,3 °C 90 % 1016,4 hPa 0,0 mm - 1,4 km/h 6,5 km/h W 0,0 W/qm 0,0 nein 01:35
01:4015,6 °C 18,9 °C 18,3 °C 90 % 1016,3 hPa 0,0 mm - 0,0 km/h 6,5 km/h W 0,0 W/qm 0,0 nein 01:40
01:4515,5 °C 18,9 °C 18,3 °C 90 % 1016,3 hPa 0,0 mm - 0,0 km/h 6,5 km/h W 0,0 W/qm 0,0 nein 01:45
01:5015,4 °C 18,9 °C 18,3 °C 90 % 1016,3 hPa 0,0 mm - 1,4 km/h 9,7 km/h WNW 0,0 W/qm 0,0 nein 01:50
01:5515,5 °C 18,9 °C 18,3 °C 89 % 1016,3 hPa 0,0 mm - 1,4 km/h 11,2 km/h W 0,0 W/qm 0,0 nein 01:55
UhrzeitTemperaturBoden 10cmBoden 20cmFeuchteLuftdruckNiederschlagEvapotranspirationWindWindböenWindrichtungSolarstrahlungUV-IndexSonne?Uhrzeit
02:0015,5 °C 18,9 °C 18,3 °C 89 % 1016,5 hPa 0,0 mm - 1,4 km/h 13,0 km/h WSW 0,0 W/qm 0,0 nein 02:00
02:0515,4 °C 18,9 °C 18,3 °C 89 % 1016,7 hPa 0,0 mm 0,0 mm 1,4 km/h 13,0 km/h WNW 0,0 W/qm 0,0 nein 02:05
02:1015,2 °C 18,9 °C 18,3 °C 89 % 1016,7 hPa 0,0 mm 0,0 mm 1,4 km/h 9,7 km/h WNW 0,0 W/qm 0,0 nein 02:10
02:1514,9 °C 18,9 °C 18,3 °C 90 % 1016,7 hPa 0,0 mm - 0,0 km/h 9,7 km/h WNW 0,0 W/qm 0,0 nein 02:15
02:2014,7 °C 18,9 °C 18,3 °C 90 % 1016,9 hPa 0,0 mm - 0,0 km/h 9,7 km/h WNW 0,0 W/qm 0,0 nein 02:20
02:2514,4 °C 18,9 °C 18,3 °C 91 % 1017,0 hPa 0,0 mm - 0,0 km/h 3,2 km/h WNW 0,0 W/qm 0,0 nein 02:25
02:3014,3 °C 18,9 °C 18,3 °C 92 % 1017,0 hPa 0,0 mm - 0,0 km/h 3,2 km/h WNW 0,0 W/qm 0,0 nein 02:30
02:3514,2 °C 18,9 °C 18,3 °C 92 % 1017,1 hPa 0,0 mm - 0,0 km/h 1,4 km/h WNW 0,0 W/qm 0,0 nein 02:35
02:4014,2 °C 18,9 °C 18,3 °C 92 % 1017,1 hPa 0,0 mm - 0,0 km/h 1,4 km/h WNW 0,0 W/qm 0,0 nein 02:40
02:4514,3 °C 18,9 °C 18,3 °C 93 % 1017,3 hPa 0,0 mm - 0,0 km/h 0,0 km/h WNW 0,0 W/qm 0,0 nein 02:45
02:5014,3 °C 18,9 °C 18,3 °C 93 % 1017,4 hPa 0,0 mm - 0,0 km/h 0,0 km/h WNW 0,0 W/qm 0,0 nein 02:50
02:5514,3 °C 18,9 °C 18,3 °C 93 % 1017,5 hPa 0,0 mm - 0,0 km/h 0,0 km/h NNW 0,0 W/qm 0,0 nein 02:55
03:0014,3 °C 18,3 °C 18,3 °C 93 % 1017,5 hPa 0,0 mm - 1,4 km/h 3,2 km/h ONO 0,0 W/qm 0,0 nein 03:00
03:0514,2 °C 18,3 °C 18,3 °C 93 % 1017,7 hPa 0,0 mm 0,0 mm 3,2 km/h 7,9 km/h NO 0,0 W/qm 0,0 nein 03:05
03:1014,1 °C 18,3 °C 18,3 °C 93 % 1017,8 hPa 0,0 mm 0,0 mm 3,2 km/h 9,7 km/h ONO 0,0 W/qm 0,0 nein 03:10
03:1514,0 °C 18,3 °C 18,3 °C 92 % 1017,9 hPa 0,0 mm - 4,7 km/h 14,4 km/h O 0,0 W/qm 0,0 nein 03:15
03:2013,9 °C 18,3 °C 18,3 °C 91 % 1018,0 hPa 0,0 mm - 6,5 km/h 14,4 km/h NW 0,0 W/qm 0,0 nein 03:20
03:2513,9 °C 18,3 °C 18,3 °C 91 % 1018,0 hPa 0,0 mm - 6,5 km/h 14,4 km/h ONO 0,0 W/qm 0,0 nein 03:25
03:3013,8 °C 18,3 °C 18,3 °C 90 % 1018,1 hPa 0,0 mm - 4,7 km/h 14,4 km/h S 0,0 W/qm 0,0 nein 03:30
03:3513,7 °C 18,3 °C 18,3 °C 89 % 1018,3 hPa 0,0 mm - 1,4 km/h 14,4 km/h SSO 0,0 W/qm 0,0 nein 03:35
03:4013,7 °C 18,3 °C 18,3 °C 89 % 1018,2 hPa 0,0 mm - 3,2 km/h 14,4 km/h NO 0,0 W/qm 0,0 nein 03:40
03:4513,6 °C 18,3 °C 18,3 °C 88 % 1018,4 hPa 0,0 mm - 3,2 km/h 11,2 km/h ONO 0,0 W/qm 0,0 nein 03:45
03:5013,5 °C 18,3 °C 18,3 °C 88 % 1018,4 hPa 0,0 mm - 3,2 km/h 11,2 km/h SSO 0,0 W/qm 0,0 nein 03:50
03:5513,4 °C 18,3 °C 18,3 °C 88 % 1018,4 hPa 0,0 mm - 3,2 km/h 11,2 km/h SSO 0,0 W/qm 0,0 nein 03:55
UhrzeitTemperaturBoden 10cmBoden 20cmFeuchteLuftdruckNiederschlagEvapotranspirationWindWindböenWindrichtungSolarstrahlungUV-IndexSonne?Uhrzeit
04:0013,3 °C 18,3 °C 18,3 °C 87 % 1018,4 hPa 0,0 mm - 3,2 km/h 13,0 km/h SW 0,0 W/qm 0,0 nein 04:00
04:0513,2 °C 18,3 °C 18,3 °C 87 % 1018,5 hPa 0,0 mm 0,0 mm 3,2 km/h 13,0 km/h ONO 0,0 W/qm 0,0 nein 04:05
04:1013,0 °C 18,3 °C 18,3 °C 87 % 1018,7 hPa 0,0 mm 0,0 mm 3,2 km/h 11,2 km/h N 0,0 W/qm 0,0 nein 04:10
04:1512,8 °C 18,3 °C 18,3 °C 87 % 1018,8 hPa 0,0 mm - 1,4 km/h 11,2 km/h NO 0,0 W/qm 0,0 nein 04:15
04:2012,6 °C 18,3 °C 18,3 °C 88 % 1018,8 hPa 0,0 mm - 1,4 km/h 11,2 km/h ONO 0,0 W/qm 0,0 nein 04:20
Gesamt: 15,1 °C 18,8 °C 18,3 °C 90 % 1016,8 hPa 0,0 mm 0,0 mm 1,5 km/h 8,3 km/h 0 0,0 W/qm 0,0 nein

Insgesamt 53 Zeilen mal 13 Spalten = 689 Werte werden angezeigt.

www.wetter-rosstal.de   •   www.wetter-franken.de   •   www.lightningmaps.org   •   Start   •   Kontakt / Datenschutz   •   PC-Kümmerer